TimeHST,TemperatureF,Dew PointF,Humidity,Sea Level PressureIn,VisibilityMPH,Wind Direction,Wind SpeedMPH,Gust SpeedMPH,PrecipitationIn,Events,Conditions,WindDirDegrees,DateUTC
12:53 AM,71.1,59.0,66,30.03,10.0,SW,6.9,-,N/A,,Scattered Clouds,230,2013-08-25 10:53:00
1:53 AM,72.0,57.9,61,30.01,10.0,SW,6.9,-,N/A,,Mostly Cloudy,220,2013-08-25 11:53:00
2:53 AM,72.0,57.9,61,30.01,10.0,SW,6.9,-,N/A,Rain,Light Rain,220,2013-08-25 12:53:00
3:53 AM,71.1,62.1,73,30.00,10.0,WSW,3.5,-,N/A,Rain,Light Rain,240,2013-08-25 13:53:00
4:53 AM,70.0,66.9,90,30.02,10.0,West,5.8,-,N/A,Rain,Light Rain,270,2013-08-25 14:53:00
5:53 AM,71.1,69.1,93,30.03,10.0,Calm,Calm,-,N/A,,Overcast,0,2013-08-25 15:53:00
6:53 AM,72.0,69.1,91,30.03,10.0,WSW,3.5,-,N/A,,Mostly Cloudy,240,2013-08-25 16:53:00
7:53 AM,75.0,70.0,84,30.05,10.0,WSW,4.6,-,N/A,,Mostly Cloudy,240,2013-08-25 17:53:00
8:53 AM,79.0,66.9,66,30.05,10.0,West,5.8,-,N/A,,Overcast,280,2013-08-25 18:53:00
9:53 AM,82.0,66.9,60,30.06,10.0,Calm,Calm,-,N/A,,Mostly Cloudy,0,2013-08-25 19:53:00
10:19 AM,80.1,66.9,64,30.08,10.0,NE,6.9,-,N/A,Rain,Light Rain,50,2013-08-25 20:19:00
10:53 AM,80.1,69.1,69,30.07,10.0,NNE,6.9,-,0.00,,Mostly Cloudy,30,2013-08-25 20:53:00
11:53 AM,81.0,69.1,67,30.06,10.0,ENE,12.7,-,N/A,,Mostly Cloudy,60,2013-08-25 21:53:00
12:05 PM,82.0,69.1,65,30.06,10.0,ENE,15.0,-,N/A,Rain,Light Rain,70,2013-08-25 22:05:00
12:53 PM,82.0,68.0,62,30.04,10.0,East,13.8,-,0.01,,Mostly Cloudy,80,2013-08-25 22:53:00
1:53 PM,82.0,68.0,62,30.03,10.0,ENE,13.8,-,N/A,,Mostly Cloudy,60,2013-08-25 23:53:00
2:53 PM,82.0,68.0,62,30.03,10.0,ENE,11.5,-,N/A,,Mostly Cloudy,60,2013-08-26 00:53:00
3:53 PM,81.0,66.9,62,30.02,10.0,ENE,9.2,-,N/A,,Mostly Cloudy,70,2013-08-26 01:53:00
4:53 PM,81.0,66.9,62,30.02,10.0,ENE,9.2,-,N/A,,Mostly Cloudy,70,2013-08-26 02:53:00
5:53 PM,79.0,70.0,74,30.03,10.0,East,6.9,-,N/A,,Mostly Cloudy,100,2013-08-26 03:53:00
6:53 PM,79.0,70.0,74,30.04,10.0,East,5.8,-,N/A,,Mostly Cloudy,90,2013-08-26 04:53:00
7:53 PM,77.0,70.0,79,30.06,10.0,NE,3.5,-,N/A,,Mostly Cloudy,40,2013-08-26 05:53:00
8:00 PM,75.0,72.0,90,30.07,10.0,East,3.5,-,N/A,,Mostly Cloudy,90,2013-08-26 06:00:00
8:53 PM,75.0,72.0,90,30.08,10.0,East,3.5,-,N/A,,Mostly Cloudy,90,2013-08-26 06:53:00
9:53 PM,75.0,72.0,90,30.10,10.0,SW,5.8,-,N/A,,Mostly Cloudy,220,2013-08-26 07:53:00
10:01 PM,75.0,72.0,90,30.10,10.0,Calm,Calm,-,N/A,,Mostly Cloudy,0,2013-08-26 08:01:00
10:53 PM,73.9,70.0,87,30.10,10.0,SW,3.5,-,N/A,,Mostly Cloudy,220,2013-08-26 08:53:00
11:06 PM,73.9,70.0,87,30.11,10.0,SW,5.8,-,N/A,,Mostly Cloudy,220,2013-08-26 09:06:00
11:53 PM,73.9,69.1,85,30.10,10.0,SW,4.6,-,N/A,,Mostly Cloudy,230,2013-08-26 09:53:00